Location: Colonia Mina de C?rbuni
(46.1667°N, 22.7167°E)
Time: 07:11:52
(UTC+00:00)

Vanguard 1 Rocket - Pass Details

Date: 13 April 2024
Orbit: 650 x 4220 km, 34.3° (Epoch: 26 May)

Event Time Altitude Azimuth Distance (km) Brightness Sun altitude
Rises 22:27:46 0° 266° (W) 4,709 11.0 -34.3°
Reaches altitude 10° 22:30:29 10° 259° (W) 4,077 10.6 -34.3°
Enters shadow 22:33:38 23° 247° (WSW) 3,527 10.1 -34.3°
Exits shadow 22:54:14 21° 139° (SE) 5,672 11.0 -34.1°
Drops below altitude 10° 23:00:20 10° 131° (SE) 6,960 11.6 -33.9°
Sets 23:06:55 0° 126° (SE) 8,285 12.1 -33.7°
